K6OUA-11 Weather Reports


time (UTC)temp
C
wind
direction
speed
KPH
gust
KPH
rain 1hr
cm
rain 24hr
cm
rain mn
cm
humidity
%
barometer
mb
20171119175114 22 45 14.5 25.7 0.00 0.00 0.00 14 1013.0
20171119174813 22 2 12.9 17.7 0.00 0.00 0.00 14 1013.0
20171119174559 22 85 8.0 24.1 0.00 0.00 0.00 14 1012.8
20171119174512 22 85 8.0 24.1 0.00 0.00 0.00 14 1012.8
20171119174307 22 4 22.5 22.5 0.00 0.00 0.00 13 1013.0
20171119174211 22 4 22.5 22.5 0.00 0.00 0.00 13 1013.0
20171119174113 23 9 4.8 11.3 0.00 0.00 0.00 15 1013.0
20171119173910 23 9 4.8 11.3 0.00 0.00 0.00 15 1013.0
20171119173651 23 337 4.8 17.7 0.00 0.00 0.00 15 1012.9
20171119173608 23 337 4.8 17.7 0.00 0.00 0.00 15 1012.9
20171119173050 23 72 14.5 14.5 0.00 0.00 0.00 15 1012.9
20171119173006 23 72 14.5 14.5 0.00 0.00 0.00 15 1012.9
20171119172832 22 92 6.4 12.9 0.00 0.00 0.00 15 1013.1
20171119172705 22 92 6.4 12.9 0.00 0.00 0.00 15 1013.1
20171119172404 22 11 12.9 24.1 0.00 0.00 0.00 15 1013.0
20171119172104 22 90 6.4 19.3 0.00 0.00 0.00 16 1013.0
20171119171802 22 90 4.8 9.7 0.00 0.00 0.00 16 1013.1
20171119171557 22 92 6.4 11.3 0.00 0.00 0.00 16 1013.2
20171119171501 22 92 6.4 11.3 0.00 0.00 0.00 16 1013.2
20171119171200 22 87 8.0 11.3 0.00 0.00 0.00 16 1013.2
20171119170859 22 65 4.8 9.7 0.00 0.00 0.00 16 1012.9
20171119170728 22 47 4.8 9.7 0.00 0.00 0.00 16 1013.0
20171119170558 22 47 4.8 9.7 0.00 0.00 0.00 16 1013.0
20171119170412 22 67 6.4 9.7 0.00 0.00 0.00 16 1013.0
20171119170256 22 67 6.4 9.7 0.00 0.00 0.00 16 1013.0
20171119170113 22 99 9.7 11.3 0.00 0.00 0.00 16 1012.9
20171119165955 22 99 9.7 11.3 0.00 0.00 0.00 16 1012.9
20171119165352 21 153 3.2 8.0 0.00 0.00 0.00 17 1013.0
20171119164842 21 105 3.2 8.0 0.00 0.00 0.00 17 1012.9
20171119164751 21 105 3.2 8.0 0.00 0.00 0.00 17 1012.9
20171119164604 21 185 1.6 4.8 0.00 0.00 0.00 17 1012.9
20171119164450 21 185 1.6 4.8 0.00 0.00 0.00 17 1012.9
20171119164336 21 229 1.6 6.4 0.00 0.00 0.00 17 1013.1
20171119164148 21 229 1.6 6.4 0.00 0.00 0.00 17 1013.1
20171119164040 20 252 1.6 12.9 0.00 0.00 0.00 17 1013.1
20171119163848 20 252 1.6 12.9 0.00 0.00 0.00 17 1013.1
20171119163648 20 114 6.4 11.3 0.00 0.00 0.00 18 1013.0
20171119163547 20 114 6.4 11.3 0.00 0.00 0.00 18 1013.0
20171119163245 20 130 4.8 6.4 0.00 0.00 0.00 18 1012.9
20171119162944 20 105 4.8 6.4 0.00 0.00 0.00 18 1012.9
20171119162819 19 123 4.8 9.7 0.00 0.00 0.00 18 1012.8
20171119162643 19 123 4.8 9.7 0.00 0.00 0.00 18 1012.8
20171119162342 19 105 9.7 12.9 0.00 0.00 0.00 18 1012.8
20171119162041 19 114 8.0 9.7 0.00 0.00 0.00 18 1012.7
20171119161844 18 120 4.8 8.0 0.00 0.00 0.00 18 1012.6
20171119161740 18 120 4.8 8.0 0.00 0.00 0.00 18 1012.6
20171119161522 18 166 1.6 8.0 0.00 0.00 0.00 18 1012.7
20171119161438 18 166 1.6 8.0 0.00 0.00 0.00 18 1012.7
20171119161257 18 63 4.8 6.4 0.00 0.00 0.00 18 1012.6
20171119161138 18 63 4.8 6.4 0.00 0.00 0.00 18 1012.6
20171119160837 18 85 4.8 11.3 0.00 0.00 0.00 18 1012.5
20171119160624 18 99 6.4 12.9 0.00 0.00 0.00 18 1012.4
20171119160535 18 99 6.4 12.9 0.00 0.00 0.00 18 1012.4
20171119160033 17 87 11.3 11.3 0.00 0.00 0.00 18 1012.3
20171119155933 17 87 11.3 11.3 0.00 0.00 0.00 18 1012.3
20171119155632 17 47 4.8 12.9 0.00 0.00 0.00 17 1012.2
20171119155417 17 74 12.9 12.9 0.00 0.00 0.00 17 1012.3
20171119155332 17 74 12.9 12.9 0.00 0.00 0.00 17 1012.3
20171119154839 17 42 11.3 11.3 0.00 0.00 0.00 18 1012.4
20171119154728 17 42 11.3 11.3 0.00 0.00 0.00 18 1012.4
20171119154428 17 39 3.2 11.3 0.00 0.00 0.00 18 1012.2
20171119154337 17 117 11.3 12.9 0.00 0.00 0.00 18 1012.2
20171119154127 17 117 11.3 12.9 0.00 0.00 0.00 18 1012.2
20171119153931 17 94 12.9 12.9 0.00 0.00 0.00 18 1012.2
20171119153826 17 94 12.9 12.9 0.00 0.00 0.00 18 1012.2
20171119153619 17 117 4.8 16.1 0.00 0.00 0.00 18 1012.2
20171119153524 17 117 4.8 16.1 0.00 0.00 0.00 18 1012.2
20171119153223 17 90 9.7 14.5 0.00 0.00 0.00 18 1012.3
20171119153006 16 90 9.7 14.5 0.00 0.00 0.00 18 1012.0
20171119152922 16 90 9.7 14.5 0.00 0.00 0.00 18 1012.0
20171119152722 17 90 9.7 14.5 0.00 0.00 0.00 18 1012.5
20171119152621 17 90 9.7 14.5 0.00 0.00 0.00 18 1012.5
20171119152534 16 60 4.8 16.1 0.00 0.00 0.00 18 1012.2
20171119152320 16 60 4.8 16.1 0.00 0.00 0.00 18 1012.2
20171119152018 16 128 6.4 8.0 0.00 0.00 0.00 19 1012.4
20171119151719 16 74 9.7 14.5 0.00 0.00 0.00 18 1012.2
20171119151524 16 87 9.7 14.5 0.00 0.00 0.00 18 1012.1
20171119151417 16 87 9.7 14.5 0.00 0.00 0.00 18 1012.1
20171119151116 16 72 24.1 30.6 0.00 0.00 0.00 18 1012.2
20171119150732 16 85 14.5 14.5 0.00 0.00 0.00 19 1012.1
20171119150513 16 85 14.5 14.5 0.00 0.00 0.00 19 1012.1
20171119150212 16 90 8.0 17.7 0.00 0.00 0.00 19 1012.3
20171119145911 16 108 6.4 17.7 0.00 0.00 0.00 18 1012.3
20171119145611 16 87 8.0 20.9 0.00 0.00 0.00 19 1012.3
20171119145309 15 58 3.2 20.9 0.00 0.00 0.00 19 1012.3
20171119145008 15 92 11.3 24.1 0.00 0.00 0.00 19 1012.4
20171119144854 15 85 9.7 20.9 0.00 0.00 0.00 19 1012.2
20171119144813 15 85 9.7 20.9 0.00 0.00 0.00 19 1012.2
20171119144706 15 85 9.7 20.9 0.00 0.00 0.00 19 1012.2
20171119144517 15 49 6.4 17.7 0.00 0.00 0.00 19 1012.2
20171119144406 15 49 6.4 17.7 0.00 0.00 0.00 19 1012.2
20171119144252 15 131 3.2 9.7 0.00 0.00 0.00 19 1011.9
20171119144105 15 131 3.2 9.7 0.00 0.00 0.00 19 1011.9
20171119144028 15 60 8.0 14.5 0.00 0.00 0.00 20 1012.0
20171119143904 15 60 8.0 14.5 0.00 0.00 0.00 20 1012.0
20171119143803 15 60 8.0 14.5 0.00 0.00 0.00 20 1012.0
20171119143502 15 92 9.7 20.9 0.00 0.00 0.00 20 1011.9
20171119143202 15 94 14.5 19.3 0.00 0.00 0.00 19 1011.8
20171119142957 15 92 11.3 16.1 0.00 0.00 0.00 19 1011.9
20171119142900 15 92 11.3 16.1 0.00 0.00 0.00 19 1011.9
20171119142653 15 92 12.9 16.1 0.00 0.00 0.00 19 1011.8
20171119142558 15 92 12.9 16.1 0.00 0.00 0.00 19 1011.8
20171119142405 15 81 11.3 22.5 0.00 0.00 0.00 19 1011.7
20171119142258 15 81 11.3 22.5 0.00 0.00 0.00 19 1011.7
20171119141957 15 90 8.0 14.5 0.00 0.00 0.00 20 1011.8
20171119141452 15 81 14.5 16.1 0.00 0.00 0.00 20 1011.8
20171119141354 15 81 14.5 16.1 0.00 0.00 0.00 20 1011.8
20171119141159 14 103 14.5 16.1 0.00 0.00 0.00 20 1012.0
20171119141053 14 103 14.5 16.1 0.00 0.00 0.00 20 1012.0
20171119140525 14 90 11.3 14.5 0.00 0.00 0.00 19 1012.1
20171119140451 14 90 11.3 14.5 0.00 0.00 0.00 19 1012.1
20171119140303 14 90 11.3 19.3 0.00 0.00 0.00 20 1012.1
20171119140150 14 90 11.3 19.3 0.00 0.00 0.00 20 1012.1
20171119140005 15 108 11.3 19.3 0.00 0.00 0.00 19 1012.0
20171119135849 15 108 11.3 19.3 0.00 0.00 0.00 19 1012.0
20171119135441 15 96 11.3 20.9 0.00 0.00 0.00 19 1012.2
20171119135252 15 96 11.3 20.9 0.00 0.00 0.00 19 1012.2
20171119135247 15 96 11.3 20.9 0.00 0.00 0.00 19 1012.2
20171119134740 14 90 11.3 20.9 0.00 0.00 0.00 19 1012.2
20171119134644 14 90 11.3 20.9 0.00 0.00 0.00 19 1012.2
20171119134556 14 94 8.0 20.9 0.00 0.00 0.00 19 1012.1
20171119134447 14 94 8.0 20.9 0.00 0.00 0.00 19 1012.1
20171119134343 14 94 8.0 20.9 0.00 0.00 0.00 19 1012.1
20171119134303 14 90 14.5 16.1 0.00 0.00 0.00 20 1012.3
20171119134043 14 90 14.5 16.1 0.00 0.00 0.00 20 1012.3
20171119133900 14 103 8.0 12.9 0.00 0.00 0.00 19 1012.4
20171119133741 14 103 8.0 12.9 0.00 0.00 0.00 19 1012.4
20171119133528 14 90 12.9 12.9 0.00 0.00 0.00 19 1012.4
20171119133439 14 90 12.9 12.9 0.00 0.00 0.00 19 1012.4
20171119133141 14 96 11.3 14.5 0.00 0.00 0.00 19 1012.3
20171119132948 14 121 9.7 14.5 0.00 0.00 0.00 20 1012.1
20171119132838 14 121 9.7 14.5 0.00 0.00 0.00 20 1012.1
20171119132536 14 119 9.7 14.5 0.00 0.00 0.00 20 1012.3
20171119132336 14 103 9.7 14.5 0.00 0.00 0.00 19 1012.3
20171119132235 14 103 9.7 14.5 0.00 0.00 0.00 19 1012.3
20171119131934 14 90 9.7 14.5 0.00 0.00 0.00 19 1012.2
20171119131744 14 108 8.0 11.3 0.00 0.00 0.00 20 1012.3
20171119131634 14 108 8.0 11.3 0.00 0.00 0.00 20 1012.3
20171119131422 14 121 4.8 11.3 0.00 0.00 0.00 19 1012.1
20171119131334 14 121 4.8 11.3 0.00 0.00 0.00 19 1012.1
20171119131332 14 121 4.8 11.3 0.00 0.00 0.00 19 1012.1
20171119130730 15 96 9.7 9.7 0.00 0.00 0.00 20 1012.1
20171119130544 15 112 3.2 14.5 0.00 0.00 0.00 19 1012.2
20171119130429 15 112 3.2 14.5 0.00 0.00 0.00 19 1012.2
20171119130319 15 102 9.7 12.9 0.00 0.00 0.00 19 1011.8
20171119130128 15 102 9.7 12.9 0.00 0.00 0.00 19 1011.8
20171119125826 15 117 8.0 16.1 0.00 0.00 0.00 19 1011.8
20171119125632 15 110 4.8 9.7 0.00 0.00 0.00 19 1011.9
20171119125526 15 110 4.8 9.7 0.00 0.00 0.00 19 1011.9
20171119125030 15 110 9.7 14.5 0.00 0.00 0.00 19 1011.8
20171119124924 15 110 9.7 14.5 0.00 0.00 0.00 19 1011.8
20171119124720 15 78 12.9 14.5 0.00 0.00 0.00 18 1011.7
20171119124622 15 78 12.9 14.5 0.00 0.00 0.00 18 1011.7
20171119124421 15 157 4.8 11.3 0.00 0.00 0.00 19 1011.7
20171119124321 15 157 4.8 11.3 0.00 0.00 0.00 19 1011.7
20171119124020 15 108 11.3 14.5 0.00 0.00 0.00 19 1011.6
20171119123758 15 120 6.4 16.1 0.00 0.00 0.00 19 1011.6
20171119123719 15 120 6.4 16.1 0.00 0.00 0.00 19 1011.6
20171119123417 15 45 6.4 16.1 0.00 0.00 0.00 18 1011.7
20171119123241 15 140 4.8 12.9 0.00 0.00 0.00 19 1011.6
20171119123117 15 140 4.8 12.9 0.00 0.00 0.00 19 1011.6
20171119122613 15 65 11.3 16.1 0.00 0.00 0.00 18 1011.6
20171119122515 15 65 11.3 16.1 0.00 0.00 0.00 18 1011.6
20171119122213 15 72 14.5 22.5 0.00 0.00 0.00 18 1011.6
20171119121912 15 57 4.8 22.5 0.00 0.00 0.00 19 1011.7
20171119121759 15 140 3.2 17.7 0.00 0.00 0.00 19 1011.5
20171119121611 15 140 3.2 17.7 0.00 0.00 0.00 19 1011.5
20171119121108 15 57 6.4 17.7 0.00 0.00 0.00 20 1011.4
20171119121009 15 57 6.4 17.7 0.00 0.00 0.00 20 1011.4
20171119120509 15 58 9.7 9.7 0.00 0.00 0.00 20 1011.6
20171119120407 15 58 9.7 9.7 0.00 0.00 0.00 20 1011.6
20171119120200 15 76 8.0 14.5 0.00 0.00 0.00 19 1011.6
20171119120106 15 76 8.0 14.5 0.00 0.00 0.00 19 1011.6
20171119115923 15 78 11.3 17.7 0.00 0.00 0.00 20 1011.6
20171119115805 15 78 11.3 17.7 0.00 0.00 0.00 20 1011.6
20171119115300 15 153 1.6 11.3 0.00 0.00 0.00 20 1011.9
20171119115202 15 153 1.6 11.3 0.00 0.00 0.00 20 1011.9
20171119115006 15 115 8.0 16.1 0.00 0.00 0.00 20 1011.9
20171119114901 15 115 8.0 16.1 0.00 0.00 0.00 20 1011.9
20171119114701 15 58 8.0 16.1 0.00 0.00 0.00 20 1011.8
20171119114601 15 58 8.0 16.1 0.00 0.00 0.00 20 1011.8
20171119114259 15 83 8.0 8.0 0.00 0.00 0.00 20 1011.9
20171119114136 15 232 1.6 8.0 0.00 0.00 0.00 21 1012.0
20171119113958 15 232 1.6 8.0 0.00 0.00 0.00 21 1012.0
20171119113807 15 92 6.4 8.0 0.00 0.00 0.00 21 1012.1
20171119113657 15 92 6.4 8.0 0.00 0.00 0.00 21 1012.1
20171119113506 15 139 3.2 11.3 0.00 0.00 0.00 21 1012.0
20171119113356 15 139 3.2 11.3 0.00 0.00 0.00 21 1012.0
20171119113055 15 117 6.4 14.5 0.00 0.00 0.00 21 1012.1
20171119112938 15 132 14.5 16.1 0.00 0.00 0.00 20 1012.0
20171119112754 15 132 14.5 16.1 0.00 0.00 0.00 20 1012.0
20171119112606 14 74 9.7 11.3 0.00 0.00 0.00 20 1012.2
20171119112454 14 74 9.7 11.3 0.00 0.00 0.00 20 1012.2
20171119112152 14 87 9.7 11.3 0.00 0.00 0.00 21 1012.4
20171119111852 15 141 3.2 8.0 0.00 0.00 0.00 21 1012.4
20171119111705 15 135 4.8 6.4 0.00 0.00 0.00 21 1012.6
20171119111549 15 135 4.8 6.4 0.00 0.00 0.00 21 1012.6
20171119111405 15 144 3.2 11.3 0.00 0.00 0.00 21 1012.4
20171119111248 15 144 3.2 11.3 0.00 0.00 0.00 21 1012.4
20171119110645 15 128 4.8 8.0 0.00 0.00 0.00 21 1012.5
20171119110435 15 110 3.2 8.0 0.00 0.00 0.00 20 1012.3
20171119110345 15 110 3.2 8.0 0.00 0.00 0.00 20 1012.3
20171119110207 15 132 3.2 8.0 0.00 0.00 0.00 20 1012.4
20171119110043 15 132 3.2 8.0 0.00 0.00 0.00 20 1012.4
20171119105941 15 114 4.8 9.7 0.00 0.00 0.00 21 1012.3
20171119105743 15 114 4.8 9.7 0.00 0.00 0.00 21 1012.3
20171119105442 15 114 6.4 9.7 0.00 0.00 0.00 20 1012.5
20171119105318 15 110 4.8 9.7 0.00 0.00 0.00 21 1012.5
20171119105140 15 110 4.8 9.7 0.00 0.00 0.00 21 1012.5
20171119104839 15 144 4.8 9.7 0.00 0.00 0.00 21 1012.5
20171119104700 15 126 4.8 8.0 0.00 0.00 0.00 21 1012.5
20171119104538 15 126 4.8 8.0 0.00 0.00 0.00 21 1012.5
20171119104237 15 186 4.8 12.9 0.00 0.00 0.00 21 1012.5
20171119104025 15 112 3.2 12.9 0.00 0.00 0.00 21 1012.6
20171119103936 15 112 3.2 12.9 0.00 0.00 0.00 21 1012.6
20171119103812 15 101 1.6 4.8 0.00 0.00 0.00 20 1012.6
20171119103635 15 101 1.6 4.8 0.00 0.00 0.00 20 1012.6
20171119103033 15 94 4.8 8.0 0.00 0.00 0.00 20 1012.6
20171119102828 15 99 8.0 8.0 0.00 0.00 0.00 21 1012.6
20171119102732 15 99 8.0 8.0 0.00 0.00 0.00 21 1012.6
20171119102551 15 141 3.2 6.4 0.00 0.00 0.00 21 1012.6
20171119102430 15 141 3.2 6.4 0.00 0.00 0.00 21 1012.6
20171119102234 15 132 4.8 6.4 0.00 0.00 0.00 21 1012.5
20171119102129 15 132 4.8 6.4 0.00 0.00 0.00 21 1012.5
20171119101828 15 110 4.8 6.4 0.00 0.00 0.00 21 1012.5
20171119101654 15 222 3.2 4.8 0.00 0.00 0.00 21 1012.4
20171119101526 15 222 3.2 4.8 0.00 0.00 0.00 21 1012.4
20171119101226 15 162 4.8 6.4 0.00 0.00 0.00 21 1012.2
20171119100925 15 119 3.2 16.1 0.00 0.00 0.00 20 1012.2
20171119100624 15 72 16.1 16.1 0.00 0.00 0.00 21 1012.3
20171119100400 15 101 6.4 11.3 0.00 0.00 0.00 21 1012.1
20171119100323 15 101 6.4 11.3 0.00 0.00 0.00 21 1012.1
20171119100141 15 121 4.8 11.3 0.00 0.00 0.00 20 1012.0
20171119100022 15 121 4.8 11.3 0.00 0.00 0.00 20 1012.0
20171119095821 15 74 9.7 11.3 0.00 0.00 0.00 21 1012.2
20171119095720 15 74 9.7 11.3 0.00 0.00 0.00 21 1012.2
20171119095419 15 126 4.8 8.0 0.00 0.00 0.00 21 1012.2
20171119095240 15 76 6.4 8.0 0.00 0.00 0.00 20 1012.2
20171119095118 15 76 6.4 8.0 0.00 0.00 0.00 20 1012.2
20171119094639 15 130 6.4 9.7 0.00 0.00 0.00 21 1012.3
20171119094516 15 130 6.4 9.7 0.00 0.00 0.00 21 1012.3
20171119094215 15 128 4.8 9.7 0.00 0.00 0.00 21 1012.3
20171119094017 15 139 4.8 11.3 0.00 0.00 0.00 21 1012.4
20171119093914 15 139 4.8 11.3 0.00 0.00 0.00 21 1012.4
20171119093656 15 90 8.0 8.0 0.00 0.00 0.00 21 1012.4
20171119093613 15 90 8.0 8.0 0.00 0.00 0.00 21 1012.4
20171119093404 15 130 3.2 9.7 0.00 0.00 0.00 21 1012.6
20171119093312 15 130 3.2 9.7 0.00 0.00 0.00 21 1012.6
20171119093045 15 105 6.4 9.7 0.00 0.00 0.00 20 1012.8
20171119093010 15 105 6.4 9.7 0.00 0.00 0.00 20 1012.8
20171119092804 15 103 6.4 8.0 0.00 0.00 0.00 20 1012.9
20171119092710 15 103 6.4 8.0 0.00 0.00 0.00 20 1012.9
20171119092517 15 126 4.8 8.0 0.00 0.00 0.00 20 1012.8
20171119092408 15 126 4.8 8.0 0.00 0.00 0.00 20 1012.8
20171119092238 15 110 4.8 11.3 0.00 0.00 0.00 20 1012.7
20171119092107 15 110 4.8 11.3 0.00 0.00 0.00 20 1012.7
20171119091806 15 191 1.6 12.9 0.00 0.00 0.00 20 1012.8
20171119091547 15 81 9.7 12.9 0.00 0.00 0.00 20 1013.1
20171119091505 15 81 9.7 12.9 0.00 0.00 0.00 20 1013.1
20171119091307 15 101 6.4 8.0 0.00 0.00 0.00 20 1013.1
20171119091204 15 101 6.4 8.0 0.00 0.00 0.00 20 1013.1
20171119090954 15 132 6.4 8.0 0.00 0.00 0.00 21 1012.9
20171119090903 15 132 6.4 8.0 0.00 0.00 0.00 21 1012.9
20171119090718 15 135 3.2 9.7 0.00 0.00 0.00 20 1013.0
20171119090603 15 135 3.2 9.7 0.00 0.00 0.00 20 1013.0
20171119090406 15 110 6.4 9.7 0.00 0.00 0.00 20 1012.9
20171119090302 15 110 6.4 9.7 0.00 0.00 0.00 20 1012.9
20171119090300 15 110 6.4 9.7 0.00 0.00 0.00 20 1012.9
20171119085521 15 108 6.4 14.5 0.00 0.00 0.00 21 1013.0
20171119085357 15 108 6.4 14.5 0.00 0.00 0.00 21 1013.0
20171119085159 15 108 4.8 12.9 0.00 0.00 0.00 20 1012.8
20171119085056 15 108 4.8 12.9 0.00 0.00 0.00 20 1012.8
20171119084910 15 90 12.9 12.9 0.00 0.00 0.00 20 1013.0
20171119084755 15 90 12.9 12.9 0.00 0.00 0.00 20 1013.0
20171119084534 15 135 3.2 9.7 0.00 0.00 0.00 20 1013.0
20171119084454 15 135 3.2 9.7 0.00 0.00 0.00 20 1013.0
20171119084307 15 126 4.8 4.8 0.00 0.00 0.00 20 1013.0
20171119084153 15 126 4.8 4.8 0.00 0.00 0.00 20 1013.0
20171119083945 15 170 1.6 6.4 0.00 0.00 0.00 21 1013.1
20171119083852 15 170 1.6 6.4 0.00 0.00 0.00 21 1013.1
20171119083730 15 159 1.6 8.0 0.00 0.00 0.00 20 1012.9
20171119083551 15 159 1.6 8.0 0.00 0.00 0.00 20 1012.9
20171119083332 15 117 3.2 8.0 0.00 0.00 0.00 20 1013.0
20171119083249 15 117 3.2 8.0 0.00 0.00 0.00 20 1013.0
20171119082738 15 217 1.6 9.7 0.00 0.00 0.00 20 1013.0
20171119082647 15 217 1.6 9.7 0.00 0.00 0.00 20 1013.0
20171119082451 15 45 9.7 9.7 0.00 0.00 0.00 20 1012.9
20171119082346 15 45 9.7 9.7 0.00 0.00 0.00 20 1012.9
20171119082151 15 101 6.4 9.7 0.00 0.00 0.00 20 1013.0
20171119082045 15 101 6.4 9.7 0.00 0.00 0.00 20 1013.0
20171119081744 15 189 1.6 12.9 0.00 0.00 0.00 20 1013.1
20171119081528 15 101 8.0 11.3 0.00 0.00 0.00 20 1013.0
20171119081443 15 101 8.0 11.3 0.00 0.00 0.00 20 1013.0
20171119081319 15 87 6.4 11.3 0.00 0.00 0.00 20 1013.0
20171119081142 15 87 6.4 11.3 0.00 0.00 0.00 20 1013.0
20171119080930 15 138 1.6 8.0 0.00 0.00 0.00 20 1013.1
20171119080841 15 138 1.6 8.0 0.00 0.00 0.00 20 1013.1
20171119080540 15 321 1.6 6.4 0.00 0.00 0.00 20 1013.0
20171119080239 16 150 3.2 4.8 0.00 0.00 0.00 20 1013.1
20171119080028 16 159 3.2 11.3 0.00 0.00 0.00 20 1013.1
20171119075937 16 159 3.2 11.3 0.00 0.00 0.00 20 1013.1
20171119075335 16 99 4.8 9.7 0.00 0.00 0.00 20 1013.2
20171119075155 16 128 6.4 6.4 0.00 0.00 0.00 20 1013.3
20171119075034 16 128 6.4 6.4 0.00 0.00 0.00 20 1013.3
20171119074819 16 123 4.8 8.0 0.00 0.00 0.00 20 1013.2
20171119074734 16 123 4.8 8.0 0.00 0.00 0.00 20 1013.2
20171119074543 16 177 0.0 6.4 0.00 0.00 0.00 20 1013.1
20171119074432 16 177 0.0 6.4 0.00 0.00 0.00 20 1013.1
20171119074131 16 112 6.4 9.7 0.00 0.00 0.00 20 1013.1
20171119073830 16 175 3.2 14.5 0.00 0.00 0.00 19 1013.2
20171119073530 16 114 8.0 14.5 0.00 0.00 0.00 20 1013.0
20171119073331 16 100 6.4 9.7 0.00 0.00 0.00 20 1013.1
20171119073227 16 100 6.4 9.7 0.00 0.00 0.00 20 1013.1
20171119072926 16 96 9.7 9.7 0.00 0.00 0.00 20 1013.2
20171119072625 16 139 4.8 8.0 0.00 0.00 0.00 20 1013.3
20171119072412 16 164 4.8 9.7 0.00 0.00 0.00 20 1013.2
20171119072324 16 164 4.8 9.7 0.00 0.00 0.00 20 1013.2
20171119072153 16 78 3.2 9.7 0.00 0.00 0.00 19 1013.4
20171119072023 16 78 3.2 9.7 0.00 0.00 0.00 19 1013.4
20171119071722 16 135 3.2 6.4 0.00 0.00 0.00 19 1013.4
20171119071115 17 162 3.2 9.7 0.00 0.00 0.00 19 1013.7
20171119070947 17 175 4.8 9.7 0.00 0.00 0.00 18 1013.5
20171119070814 17 175 4.8 9.7 0.00 0.00 0.00 18 1013.5
20171119070604 17 123 3.2 6.4 0.00 0.00 0.00 18 1013.6
20171119070513 17 123 3.2 6.4 0.00 0.00 0.00 18 1013.6
20171119070005 17 6 12.9 14.5 0.00 0.00 0.00 18 1013.4
20171119065910 17 6 12.9 14.5 0.00 0.00 0.00 18 1013.4
20171119065750 17 27 17.7 19.3 0.00 0.00 0.00 18 1013.5
20171119065609 17 27 17.7 19.3 0.00 0.00 0.00 18 1013.5
20171119065438 17 37 4.8 19.3 0.00 0.00 0.00 18 1013.4
20171119065308 17 37 4.8 19.3 0.00 0.00 0.00 18 1013.4
20171119065126 17 51 11.3 19.3 0.00 0.00 0.00 17 1013.4
20171119065007 17 51 11.3 19.3 0.00 0.00 0.00 17 1013.4
20171119064813 17 60 6.4 27.4 0.00 0.00 0.00 18 1013.5
20171119064706 17 60 6.4 27.4 0.00 0.00 0.00 18 1013.5
20171119064520 17 56 24.1 27.4 0.00 0.00 0.00 18 1013.4
20171119064404 17 56 24.1 27.4 0.00 0.00 0.00 18 1013.4
20171119064302 17 40 11.3 24.1 0.00 0.00 0.00 17 1013.4
20171119064104 17 40 11.3 24.1 0.00 0.00 0.00 17 1013.4
20171119063803 17 15 24.1 25.7 0.00 0.00 0.00 17 1013.5
20171119063619 17 20 14.5 19.3 0.00 0.00 0.00 18 1013.2
20171119063502 17 20 14.5 19.3 0.00 0.00 0.00 18 1013.2
20171119063200 17 7 6.4 16.1 0.00 0.00 0.00 18 1013.3
20171119062948 17 101 6.4 19.3 0.00 0.00 0.00 18 1013.3
20171119062859 17 101 6.4 19.3 0.00 0.00 0.00 18 1013.3
20171119062714 17 60 16.1 27.4 0.00 0.00 0.00 17 1013.3
20171119062558 17 60 16.1 27.4 0.00 0.00 0.00 17 1013.3
20171119062408 17 15 20.9 33.8 0.00 0.00 0.00 17 1013.3
20171119062257 17 15 20.9 33.8 0.00 0.00 0.00 17 1013.3
20171119062126 17 49 33.8 33.8 0.00 0.00 0.00 17 1013.2
20171119061956 17 49 33.8 33.8 0.00 0.00 0.00 17 1013.2
20171119061812 17 36 11.3 24.1 0.00 0.00 0.00 18 1013.3
20171119061655 17 36 11.3 24.1 0.00 0.00 0.00 18 1013.3
20171119061353 17 33 17.7 27.4 0.00 0.00 0.00 18 1013.2
20171119061303 17 49 14.5 27.4 0.00 0.00 0.00 18 1013.1
20171119061052 17 49 14.5 27.4 0.00 0.00 0.00 18 1013.1
20171119060535 17 37 11.3 22.5 0.00 0.00 0.00 18 1013.1
20171119060450 17 37 11.3 22.5 0.00 0.00 0.00 18 1013.1
20171119060234 17 30 9.7 25.7 0.00 0.00 0.00 18 1013.2
20171119060149 17 30 9.7 25.7 0.00 0.00 0.00 18 1013.2
20171119060003 17 38 11.3 20.9 0.00 0.00 0.00 18 1013.3
20171119055848 17 38 11.3 20.9 0.00 0.00 0.00 18 1013.3
20171119055635 17 33 17.7 20.9 0.00 0.00 0.00 18 1013.3
20171119055546 17 33 17.7 20.9 0.00 0.00 0.00 18 1013.3
20171119055246 17 80 4.8 20.9 0.00 0.00 0.00 18 1013.2
20171119055031 17 38 12.9 25.7 0.00 0.00 0.00 18 1013.2
20171119054945 17 38 12.9 25.7 0.00 0.00 0.00 18 1013.2
20171119054734 17 18 20.9 22.5 0.00 0.00 0.00 18 1013.3
20171119054644 17 18 20.9 22.5 0.00 0.00 0.00 18 1013.3
20171119054456 17 31 16.1 24.1 0.00 0.00 0.00 18 1013.3
20171119054342 17 31 16.1 24.1 0.00 0.00 0.00 18 1013.3
20171119054122 17 65 14.5 24.1 0.00 0.00 0.00 18 1013.1
20171119054041 17 65 14.5 24.1 0.00 0.00 0.00 18 1013.1
20171119053850 17 47 9.7 19.3 0.00 0.00 0.00 19 1013.3
20171119053740 17 47 9.7 19.3 0.00 0.00 0.00 19 1013.3
20171119053536 17 36 19.3 20.9 0.00 0.00 0.00 18 1013.4
20171119053439 17 36 19.3 20.9 0.00 0.00 0.00 18 1013.4
20171119053253 17 49 8.0 24.1 0.00 0.00 0.00 18 1013.4
20171119053138 17 49 8.0 24.1 0.00 0.00 0.00 18 1013.4
20171119052922 17 38 19.3 24.1 0.00 0.00 0.00 18 1013.5
20171119052837 17 38 19.3 24.1 0.00 0.00 0.00 18 1013.5
20171119052708 17 45 20.9 20.9 0.00 0.00 0.00 18 1013.4
20171119052536 17 45 20.9 20.9 0.00 0.00 0.00 18 1013.4
20171119052345 17 31 9.7 20.9 0.00 0.00 0.00 18 1013.5
20171119052235 17 31 9.7 20.9 0.00 0.00 0.00 18 1013.5
20171119051727 17 25 8.0 24.1 0.00 0.00 0.00 18 1013.4
20171119051633 17 25 8.0 24.1 0.00 0.00 0.00 18 1013.4
20171119051431 17 10 12.9 24.1 0.00 0.00 0.00 18 1013.2
20171119051332 17 10 12.9 24.1 0.00 0.00 0.00 18 1013.2
20171119051137 17 37 14.5 20.9 0.00 0.00 0.00 18 1013.4
20171119051031 17 37 14.5 20.9 0.00 0.00 0.00 18 1013.4
20171119050843 18 20 12.9 24.1 0.00 0.00 0.00 18 1013.4
20171119050730 18 20 12.9 24.1 0.00 0.00 0.00 18 1013.4
20171119050428 18 51 17.7 24.1 0.00 0.00 0.00 18 1013.3
20171119050243 18 56 22.5 22.5 0.00 0.00 0.00 18 1013.3
20171119050127 18 56 22.5 22.5 0.00 0.00 0.00 18 1013.3
20171119045942 18 31 20.9 24.1 0.00 0.00 0.00 18 1013.4
20171119045826 18 31 20.9 24.1 0.00 0.00 0.00 18 1013.4
20171119045322 17 61 11.3 24.1 0.00 0.00 0.00 18 1013.3
20171119045224 17 61 11.3 24.1 0.00 0.00 0.00 18 1013.3
20171119045016 17 13 17.7 20.9 0.00 0.00 0.00 18 1013.3
20171119044923 17 13 17.7 20.9 0.00 0.00 0.00 18 1013.3
20171119044723 17 40 17.7 19.3 0.00 0.00 0.00 18 1013.2
20171119044621 17 40 17.7 19.3 0.00 0.00 0.00 18 1013.2
20171119044427 18 17 16.1 17.7 0.00 0.00 0.00 18 1013.3
20171119044320 18 17 16.1 17.7 0.00 0.00 0.00 18 1013.3
20171119044019 18 31 17.7 24.1 0.00 0.00 0.00 18 1013.1
20171119043718 18 16 8.0 29.0 0.00 0.00 0.00 18 1013.2
20171119043546 18 47 16.1 20.9 0.00 0.00 0.00 19 1013.1
20171119043417 18 47 16.1 20.9 0.00 0.00 0.00 19 1013.1
20171119043233 18 92 4.8 22.5 0.00 0.00 0.00 18 1013.2
20171119043116 18 92 4.8 22.5 0.00 0.00 0.00 18 1013.2
20171119042912 18 36 14.5 20.9 0.00 0.00 0.00 19 1013.2
20171119042815 18 36 14.5 20.9 0.00 0.00 0.00 19 1013.2
20171119042615 18 33 20.9 20.9 0.00 0.00 0.00 19 1013.1
20171119042513 18 33 20.9 20.9 0.00 0.00 0.00 19 1013.1
20171119042213 18 29 11.3 22.5 0.00 0.00 0.00 19 1013.2
20171119042013 18 18 19.3 19.3 0.00 0.00 0.00 18 1013.3
20171119041912 18 18 19.3 19.3 0.00 0.00 0.00 18 1013.3
20171119041310 18 27 16.1 20.9 0.00 0.00 0.00 19 1013.3
20171119041008 18 36 19.3 20.9 0.00 0.00 0.00 18 1013.1
20171119040830 18 33 14.5 24.1 0.00 0.00 0.00 18 1013.2
20171119040707 18 33 14.5 24.1 0.00 0.00 0.00 18 1013.2
20171119040405 18 27 16.1 19.3 0.00 0.00 0.00 19 1013.1
20171119040215 18 15 19.3 24.1 0.00 0.00 0.00 18 1013.2
20171119040105 18 15 19.3 24.1 0.00 0.00 0.00 18 1013.2
20171119035847 18 33 14.5 29.0 0.00 0.00 0.00 18 1013.2
20171119035804 18 33 14.5 29.0 0.00 0.00 0.00 18 1013.2
20171119035607 18 51 25.7 27.4 0.00 0.00 0.00 19 1013.0
20171119035503 18 51 25.7 27.4 0.00 0.00 0.00 19 1013.0
20171119035247 18 22 9.7 16.1 0.00 0.00 0.00 20 1013.0
20171119035202 18 22 9.7 16.1 0.00 0.00 0.00 20 1013.0
20171119035004 18 45 24.1 24.1 0.00 0.00 0.00 20 1013.0
20171119034901 18 45 24.1 24.1 0.00 0.00 0.00 20 1013.0
20171119034638 18 51 11.3 14.5 0.00 0.00 0.00 20 1013.0
20171119034559 18 51 11.3 14.5 0.00 0.00 0.00 20 1013.0
20171119034125 18 22 6.4 19.3 0.00 0.00 0.00 20 1013.1
20171119033957 18 22 6.4 19.3 0.00 0.00 0.00 20 1013.1
20171119033731 18 0 9.7 17.7 0.00 0.00 0.00 19 1013.0
20171119033656 18 0 9.7 17.7 0.00 0.00 0.00 19 1013.0
20171119033143 18 47 11.3 14.5 0.00 0.00 0.00 20 1013.0
20171119033054 18 47 11.3 14.5 0.00 0.00 0.00 20 1013.0
20171119032752 18 51 9.7 25.7 0.00 0.00 0.00 19 1013.0
20171119032533 18 40 9.7 22.5 0.00 0.00 0.00 19 1013.0
20171119032452 18 40 9.7 22.5 0.00 0.00 0.00 19 1013.0
20171119032302 18 29 11.3 22.5 0.00 0.00 0.00 19 1013.0
20171119032151 18 29 11.3 22.5 0.00 0.00 0.00 19 1013.0
20171119031850 18 22 19.3 20.9 0.00 0.00 0.00 19 1013.0
20171119031636 18 36 20.9 20.9 0.00 0.00 0.00 19 1013.0
20171119031549 18 36 20.9 20.9 0.00 0.00 0.00 19 1013.0
20171119031248 18 36 17.7 22.5 0.00 0.00 0.00 19 1013.1
20171119031047 18 31 16.1 27.4 0.00 0.00 0.00 19 1013.0
20171119030946 18 31 16.1 27.4 0.00 0.00 0.00 19 1013.0
20171119030457 18 24 8.0 24.1 0.00 0.00 0.00 19 1013.1
20171119030344 18 24 8.0 24.1 0.00 0.00 0.00 19 1013.1
20171119030254 18 22 22.5 27.4 0.00 0.00 0.00 18 1013.0
20171119030043 18 22 22.5 27.4 0.00 0.00 0.00 18 1013.0
20171119025859 18 22 27.4 27.4 0.00 0.00 0.00 19 1013.0
20171119025742 18 22 27.4 27.4 0.00 0.00 0.00 19 1013.0
20171119025559 18 33 20.9 25.7 0.00 0.00 0.00 19 1013.1
20171119025441 18 33 20.9 25.7 0.00 0.00 0.00 19 1013.1
20171119025140 18 11 8.0 22.5 0.00 0.00 0.00 19 1013.1
20171119024839 18 31 16.1 27.4 0.00 0.00 0.00 19 1013.0
20171119024642 18 24 19.3 27.4 0.00 0.00 0.00 18 1013.0
20171119024538 18 24 19.3 27.4 0.00 0.00 0.00 18 1013.0
20171119024348 18 27 12.9 22.5 0.00 0.00 0.00 19 1013.0
20171119024236 18 27 12.9 22.5 0.00 0.00 0.00 19 1013.0
20171119024107 18 45 20.9 25.7 0.00 0.00 0.00 19 1012.9
20171119023936 18 45 20.9 25.7 0.00 0.00 0.00 19 1012.9
20171119023750 18 27 22.5 29.0 0.00 0.00 0.00 19 1012.9
20171119023633 18 27 22.5 29.0 0.00 0.00 0.00 19 1012.9
20171119023528 18 45 22.5 25.7 0.00 0.00 0.00 19 1012.8
20171119023334 18 45 22.5 25.7 0.00 0.00 0.00 19 1012.8
20171119023032 18 51 16.1 20.9 0.00 0.00 0.00 19 1013.0
20171119022731 18 22 17.7 20.9 0.00 0.00 0.00 19 1013.1
20171119022430 18 22 14.5 25.7 0.00 0.00 0.00 19 1012.9
20171119022128 18 32 9.7 20.9 0.00 0.00 0.00 19 1012.9
20171119021828 18 45 6.4 20.9 0.00 0.00 0.00 19 1012.9
20171119021712 18 16 16.1 25.7 0.00 0.00 0.00 19 1012.9
20171119021526 18 16 16.1 25.7 0.00 0.00 0.00 19 1012.9
20171119021225 18 25 11.3 17.7 0.00 0.00 0.00 19 1012.8
20171119021010 18 52 8.0 22.5 0.00 0.00 0.00 19 1012.8
20171119020924 18 52 8.0 22.5 0.00 0.00 0.00 19 1012.8
20171119020623 18 38 14.5 27.4 0.00 0.00 0.00 19 1012.9
20171119020150 18 47 19.3 25.7 0.00 0.00 0.00 18 1012.7
20171119020021 18 47 19.3 25.7 0.00 0.00 0.00 18 1012.7
20171119015802 18 29 19.3 25.7 0.00 0.00 0.00 19 1012.8
20171119015720 18 29 19.3 25.7 0.00 0.00 0.00 19 1012.8
20171119015529 18 78 11.3 19.3 0.00 0.00 0.00 19 1012.6
20171119015419 18 78 11.3 19.3 0.00 0.00 0.00 19 1012.6
20171119015118 18 27 8.0 25.7 0.00 0.00 0.00 18 1012.7
20171119014618 18 40 19.3 25.7 0.00 0.00 0.00 18 1012.5
20171119014522 18 40 19.3 25.7 0.00 0.00 0.00 18 1012.5
20171119014257 18 45 16.1 22.5 0.00 0.00 0.00 18 1012.6
20171119014214 18 45 16.1 22.5 0.00 0.00 0.00 18 1012.6
20171119014011 18 18 19.3 25.7 0.00 0.00 0.00 18 1012.6
20171119013913 18 18 19.3 25.7 0.00 0.00 0.00 18 1012.6
20171119013740 19 38 11.3 24.1 0.00 0.00 0.00 18 1012.8
20171119013612 19 38 11.3 24.1 0.00 0.00 0.00 18 1012.8
20171119013443 19 22 14.5 24.1 0.00 0.00 0.00 18 1012.6
20171119013312 19 22 14.5 24.1 0.00 0.00 0.00 18 1012.6
20171119013010 19 13 22.5 24.1 0.00 0.00 0.00 18 1012.7
20171119012837 19 29 19.3 24.1 0.00 0.00 0.00 18 1012.4
20171119012709 19 29 19.3 24.1 0.00 0.00 0.00 18 1012.4
20171119012453 19 42 20.9 20.9 0.00 0.00 0.00 18 1012.6
20171119012407 19 42 20.9 20.9 0.00 0.00 0.00 18 1012.6
20171119012107 19 36 16.1 24.1 0.00 0.00 0.00 18 1012.5
20171119011858 19 17 12.9 24.1 0.00 0.00 0.00 18 1012.5
20171119011806 19 17 12.9 24.1 0.00 0.00 0.00 18 1012.5
20171119011611 19 36 20.9 24.1 0.00 0.00 0.00 18 1012.6
20171119011504 19 36 20.9 24.1 0.00 0.00 0.00 18 1012.6
20171119011251 19 15 24.1 24.1 0.00 0.00 0.00 18 1012.5
20171119011204 19 15 24.1 24.1 0.00 0.00 0.00 18 1012.5
20171119010943 19 11 14.5 27.4 0.00 0.00 0.00 18 1012.6
20171119010903 19 11 14.5 27.4 0.00 0.00 0.00 18 1012.6
20171119010601 19 20 19.3 25.7 0.00 0.00 0.00 18 1012.5
20171119005958 20 42 14.5 22.5 0.00 0.00 0.00 18 1012.7
20171119005657 20 15 19.3 25.7 0.00 0.00 0.00 18 1012.7
20171119005056 20 47 9.7 19.3 0.00 0.00 0.00 18 1012.6
20171119004754 20 49 8.0 19.3 0.00 0.00 0.00 18 1012.7
20171119004453 20 22 14.5 19.3 0.00 0.00 0.00 17 1012.7
20171119004316 20 42 14.5 20.9 0.00 0.00 0.00 17 1012.6
20171119004152 20 42 14.5 20.9 0.00 0.00 0.00 17 1012.6
20171119003852 20 33 20.9 22.5 0.00 0.00 0.00 17 1012.5
20171119003549 20 29 17.7 20.9 0.00 0.00 0.00 17 1012.7
20171119003416 20 22 14.5 30.6 0.00 0.00 0.00 18 1012.6
20171119003250 20 22 14.5 30.6 0.00 0.00 0.00 18 1012.6
20171119002809 21 45 11.3 22.5 0.00 0.00 0.00 18 1012.6
20171119002648 21 45 11.3 22.5 0.00 0.00 0.00 18 1012.6
20171119002646 21 45 11.3 22.5 0.00 0.00 0.00 18 1012.6
20171119002500 21 12 14.5 20.9 0.00 0.00 0.00 17 1012.6
20171119002346 21 12 14.5 20.9 0.00 0.00 0.00 17 1012.6
20171119002227 21 37 14.5 24.1 0.00 0.00 0.00 17 1012.5
20171119002044 21 37 14.5 24.1 0.00 0.00 0.00 17 1012.5
20171119001832 21 15 16.1 24.1 0.00 0.00 0.00 17 1012.5
20171119001743 21 15 16.1 24.1 0.00 0.00 0.00 17 1012.5
20171119001610 21 45 14.5 24.1 0.00 0.00 0.00 17 1012.7
20171119001442 21 45 14.5 24.1 0.00 0.00 0.00 17 1012.7
20171119001141 21 40 11.3 25.7 0.00 0.00 0.00 17 1012.6
20171119000840 21 48 8.0 30.6 0.00 0.00 0.00 17 1012.7
20171119000712 21 33 16.1 22.5 0.00 0.00 0.00 17 1012.7
20171119000539 21 33 16.1 22.5 0.00 0.00 0.00 17 1012.7
20171119000238 21 10 9.7 17.7 0.00 0.00 0.00 17 1012.6
20171119000031 21 40 14.5 19.3 0.00 0.00 0.00 18 1012.6
20171118235937 21 40 14.5 19.3 0.00 0.00 0.00 18 1012.6
20171118235635 21 352 3.2 19.3 0.00 0.00 0.00 18 1012.6
20171118235335 22 36 12.9 29.0 0.00 0.00 0.00 18 1012.6
20171118235037 22 315 6.4 22.5 0.00 0.00 0.00 17 1012.6
20171118235034 22 315 6.4 22.5 0.00 0.00 0.00 17 1012.6
20171118234816 22 13 14.5 22.5 0.00 0.00 0.00 17 1012.6
20171118234732 22 13 14.5 22.5 0.00 0.00 0.00 17 1012.6
20171118234431 22 9 22.5 24.1 0.00 0.00 0.00 17 1012.7
20171118234130 22 7 17.7 24.1 0.00 0.00 0.00 17 1012.8
20171118233831 22 16 12.9 24.1 0.00 0.00 0.00 17 1012.6
20171118233829 22 16 12.9 24.1 0.00 0.00 0.00 17 1012.6
20171118233640 22 0 22.5 22.5 0.00 0.00 0.00 17 1012.7
20171118233529 22 0 22.5 22.5 0.00 0.00 0.00 17 1012.7
20171118233227 22 60 12.9 19.3 0.00 0.00 0.00 18 1012.7
20171118232926 22 11 11.3 25.7 0.00 0.00 0.00 17 1012.7
20171118232625 22 27 11.3 25.7 0.00 0.00 0.00 17 1012.7
20171118232022 23 18 19.3 20.9 0.00 0.00 0.00 17 1012.7
20171118231804 23 4 9.7 25.7 0.00 0.00 0.00 17 1012.7
20171118231723 23 4 9.7 25.7 0.00 0.00 0.00 17 1012.7
20171118231721 23 4 9.7 25.7 0.00 0.00 0.00 17 1012.7
20171118231420 23 24 14.5 25.7 0.00 0.00 0.00 17 1012.7
20171118231153 23 15 20.9 24.1 0.00 0.00 0.00 16 1012.7
20171118231120 23 15 20.9 24.1 0.00 0.00 0.00 16 1012.7
20171118230913 23 2 11.3 19.3 0.00 0.00 0.00 17 1012.7
20171118230818 23 2 11.3 19.3 0.00 0.00 0.00 17 1012.7
20171118230608 23 31 12.9 19.3 0.00 0.00 0.00 18 1012.7
20171118230516 23 31 12.9 19.3 0.00 0.00 0.00 18 1012.7
20171118230447 23 35 9.7 25.7 0.00 0.00 0.00 17 1012.6
20171118230319 23 35 9.7 25.7 0.00 0.00 0.00 17 1012.6
20171118230217 23 35 9.7 25.7 0.00 0.00 0.00 17 1012.6
20171118230015 23 33 17.7 25.7 0.00 0.00 0.00 17 1012.5
20171118225914 23 33 17.7 25.7 0.00 0.00 0.00 17 1012.5
20171118225714 23 20 16.1 20.9 0.00 0.00 0.00 17 1012.6
20171118225613 23 20 16.1 20.9 0.00 0.00 0.00 17 1012.6
20171118225313 23 42 9.7 22.5 0.00 0.00 0.00 17 1012.6
20171118225126 23 7 6.4 20.9 0.00 0.00 0.00 17 1012.8
20171118225011 23 7 6.4 20.9 0.00 0.00 0.00 17 1012.8
20171118224753 23 32 6.4 14.5 0.00 0.00 0.00 18 1012.6
20171118224712 23 32 6.4 14.5 0.00 0.00 0.00 18 1012.6
20171118224409 23 36 12.9 20.9 0.00 0.00 0.00 18 1012.5
20171118224204 23 45 11.3 19.3 0.00 0.00 0.00 18 1012.5
20171118224108 23 45 11.3 19.3 0.00 0.00 0.00 18 1012.5
20171118223852 23 33 11.3 24.1 0.00 0.00 0.00 17 1012.5
20171118223808 23 33 11.3 24.1 0.00 0.00 0.00 17 1012.5
20171118223655 23 27 16.1 20.9 0.00 0.00 0.00 18 1012.6
20171118223509 23 27 16.1 20.9 0.00 0.00 0.00 18 1012.6
20171118223506 23 27 16.1 20.9 0.00 0.00 0.00 18 1012.6
20171118223314 23 55 6.4 19.3 0.00 0.00 0.00 19 1012.7
20171118223206 23 55 6.4 19.3 0.00 0.00 0.00 19 1012.7
20171118223204 23 55 6.4 19.3 0.00 0.00 0.00 19 1012.7
20171118222959 23 36 11.3 20.9 0.00 0.00 0.00 18 1012.7
20171118222903 23 36 11.3 20.9 0.00 0.00 0.00 18 1012.7
20171118222603 23 29 17.7 24.1 0.00 0.00 0.00 17 1012.7
20171118222345 23 4 14.5 22.5 0.00 0.00 0.00 17 1012.7
20171118222301 23 4 14.5 22.5 0.00 0.00 0.00 17 1012.7
20171118221745 23 50 17.7 22.5 0.00 0.00 0.00 18 1012.8
20171118221659 23 50 17.7 22.5 0.00 0.00 0.00 18 1012.8
20171118221443 23 49 17.7 24.1 0.00 0.00 0.00 18 1012.8
20171118221358 23 49 17.7 24.1 0.00 0.00 0.00 18 1012.8
20171118221140 23 42 22.5 29.0 0.00 0.00 0.00 18 1012.7
20171118221057 23 42 22.5 29.0 0.00 0.00 0.00 18 1012.7
20171118220849 23 6 17.7 22.5 0.00 0.00 0.00 18 1012.6
20171118220756 23 6 17.7 22.5 0.00 0.00 0.00 18 1012.6
20171118220551 24 37 16.1 22.5 0.00 0.00 0.00 18 1012.6
20171118220455 24 37 16.1 22.5 0.00 0.00 0.00 18 1012.6
20171118220242 24 32 11.3 20.9 0.00 0.00 0.00 18 1012.7
20171118220153 24 32 11.3 20.9 0.00 0.00 0.00 18 1012.7
20171118215935 24 27 20.9 24.1 0.00 0.00 0.00 17 1012.8
20171118215854 24 27 20.9 24.1 0.00 0.00 0.00 17 1012.8
20171118215552 24 54 14.5 24.1 0.00 0.00 0.00 18 1012.7
20171118214726 24 27 19.3 25.7 0.00 0.00 0.00 18 1012.9
20171118214647 24 27 19.3 25.7 0.00 0.00 0.00 18 1012.9
20171118214424 24 33 12.9 22.5 0.00 0.00 0.00 18 1012.9
20171118214347 24 33 12.9 22.5 0.00 0.00 0.00 18 1012.9
20171118214046 24 11 12.9 27.4 0.00 0.00 0.00 17 1012.9
20171118213745 24 36 27.4 29.0 0.00 0.00 0.00 17 1013.0
20171118213444 24 36 17.7 29.0 0.00 0.00 0.00 18 1013.0
20171118213238 24 27 14.5 29.0 0.00 0.00 0.00 17 1013.1
20171118213143 24 27 14.5 29.0 0.00 0.00 0.00 17 1013.1
20171118212933 24 33 22.5 24.1 0.00 0.00 0.00 18 1013.2
20171118212842 24 33 22.5 24.1 0.00 0.00 0.00 18 1013.2
20171118212615 23 45 9.7 22.5 0.00 0.00 0.00 18 1013.1
20171118212541 23 45 9.7 22.5 0.00 0.00 0.00 18 1013.1
20171118212240 23 38 9.7 32.2 0.00 0.00 0.00 18 1013.3
20171118212040 23 42 19.3 32.2 0.00 0.00 0.00 17 1013.2
20171118211938 23 42 19.3 32.2 0.00 0.00 0.00 17 1013.2
20171118211637 23 40 19.3 24.1 0.00 0.00 0.00 17 1013.0
20171118211336 23 69 16.1 27.4 0.00 0.00 0.00 18 1013.4
20171118210833 23 13 22.5 30.6 0.00 0.00 0.00 17 1013.4
20171118210734 23 13 22.5 30.6 0.00 0.00 0.00 17 1013.4
20171118210432 23 31 16.1 30.6 0.00 0.00 0.00 18 1013.3
20171118210132 23 42 12.9 30.6 0.00 0.00 0.00 17 1013.4
20171118205926 23 51 4.8 40.2 0.00 0.00 0.00 18 1013.5
20171118205831 23 51 4.8 40.2 0.00 0.00 0.00 18 1013.5
20171118205529 23 24 40.2 40.2 0.00 0.00 0.00 17 1013.3
20171118205313 23 63 14.5 30.6 0.00 0.00 0.00 18 1013.5
20171118205229 23 63 14.5 30.6 0.00 0.00 0.00 18 1013.5
20171118205013 23 19 16.1 30.6 0.00 0.00 0.00 17 1013.6
20171118204929 23 19 16.1 30.6 0.00 0.00 0.00 17 1013.6
20171118204709 23 20 20.9 33.8 0.00 0.00 0.00 18 1013.9
20171118204625 23 20 20.9 33.8 0.00 0.00 0.00 18 1013.9
20171118204121 23 72 12.9 30.6 0.00 0.00 0.00 18 1013.9
20171118204024 23 72 12.9 30.6 0.00 0.00 0.00 18 1013.9
20171118203800 23 27 25.7 35.4 0.00 0.00 0.00 17 1014.0
20171118203723 23 27 25.7 35.4 0.00 0.00 0.00 17 1014.0
20171118203518 23 29 29.0 35.4 0.00 0.00 0.00 17 1014.1
20171118203422 23 29 29.0 35.4 0.00 0.00 0.00 17 1014.1
20171118203120 23 9 20.9 29.0 0.00 0.00 0.00 18 1014.0
20171118202951 23 18 16.1 22.5 0.00 0.00 0.00 18 1014.1
20171118202913 23 18 16.1 22.5 0.00 0.00 0.00 18 1014.1
20171118202819 23 18 16.1 22.5 0.00 0.00 0.00 18 1014.1
20171118202519 23 20 19.3 29.0 0.00 0.00 0.00 18 1014.1
20171118202217 23 11 24.1 29.0 0.00 0.00 0.00 19 1014.2
20171118202011 23 13 14.5 32.2 0.00 0.00 0.00 18 1014.1
20171118201915 23 13 14.5 32.2 0.00 0.00 0.00 18 1014.1
20171118201615 23 22 12.9 32.2 0.00 0.00 0.00 18 1014.1
20171118201411 23 25 24.1 37.0 0.00 0.00 0.00 18 1014.1
20171118201315 23 25 24.1 37.0 0.00 0.00 0.00 18 1014.1
20171118200821 23 58 22.5 25.7 0.00 0.00 0.00 18 1014.3
20171118200712 23 58 22.5 25.7 0.00 0.00 0.00 18 1014.3
20171118200456 23 30 19.3 33.8 0.00 0.00 0.00 19 1014.3
20171118200411 23 30 19.3 33.8 0.00 0.00 0.00 19 1014.3
20171118200206 23 38 24.1 33.8 0.00 0.00 0.00 19 1014.3
20171118200110 23 38 24.1 33.8 0.00 0.00 0.00 19 1014.3
20171118195847 23 29 17.7 33.8 0.00 0.00 0.00 18 1014.3
20171118195808 23 29 17.7 33.8 0.00 0.00 0.00 18 1014.3
20171118195550 23 38 19.3 33.8 0.00 0.00 0.00 18 1014.5
20171118195507 23 38 19.3 33.8 0.00 0.00 0.00 18 1014.5
20171118195206 23 22 20.9 35.4 0.00 0.00 0.00 18 1014.5
20171118195014 23 18 20.9 35.4 0.00 0.00 0.00 18 1014.8
20171118194904 23 18 20.9 35.4 0.00 0.00 0.00 18 1014.8
20171118194710 23 36 22.5 30.6 0.00 0.00 0.00 18 1014.7
20171118194604 23 36 22.5 30.6 0.00 0.00 0.00 18 1014.7
20171118194057 23 30 19.3 29.0 0.00 0.00 0.00 19 1014.8
20171118194002 23 30 19.3 29.0 0.00 0.00 0.00 19 1014.8
20171118193735 23 31 27.4 27.4 0.00 0.00 0.00 19 1014.8
20171118193701 23 31 27.4 27.4 0.00 0.00 0.00 19 1014.8
20171118193458 23 355 27.4 27.4 0.00 0.00 0.00 19 1014.7
20171118193400 23 355 27.4 27.4 0.00 0.00 0.00 19 1014.7
20171118193153 23 27 16.1 29.0 0.00 0.00 0.00 19 1014.8
20171118193059 23 27 16.1 29.0 0.00 0.00 0.00 19 1014.8
20171118192832 23 20 24.1 29.0 0.00 0.00 0.00 19 1014.8
20171118192757 23 20 24.1 29.0 0.00 0.00 0.00 19 1014.8
20171118192629 22 33 9.7 25.7 0.00 0.00 0.00 20 1015.0
20171118192457 22 33 9.7 25.7 0.00 0.00 0.00 20 1015.0
20171118192248 22 15 24.1 32.2 0.00 0.00 0.00 19 1014.9
20171118192155 22 15 24.1 32.2 0.00 0.00 0.00 19 1014.9
20171118191948 22 22 22.5 32.2 0.00 0.00 0.00 19 1015.0
20171118191854 22 22 22.5 32.2 0.00 0.00 0.00 19 1015.0
20171118191553 22 351 24.1 25.7 0.00 0.00 0.00 20 1015.3
20171118191251 22 2 20.9 25.7 0.00 0.00 0.00 20 1015.3
20171118191053 22 37 12.9 30.6 0.00 0.00 0.00 20 1015.3
20171118190951 22 37 12.9 30.6 0.00 0.00 0.00 20 1015.3
20171118190802 22 11 25.7 32.2 0.00 0.00 0.00 20 1015.1
20171118190649 22 11 25.7 32.2 0.00 0.00 0.00 20 1015.1
20171118190349 22 33 20.9 32.2 0.00 0.00 0.00 20 1015.4
20171118185445 22 47 20.9 25.7 0.00 0.00 0.00 21 1015.1
20171118185301 22 42 24.1 25.7 0.00 0.00 0.00 22 1015.4
20171118185144 22 42 24.1 25.7 0.00 0.00 0.00 22 1015.4
20171118184951 22 47 14.5 29.0 0.00 0.00 0.00 21 1015.6
20171118184843 22 47 14.5 29.0 0.00 0.00 0.00 21 1015.6
20171118184542 22 24 25.7 25.7 0.00 0.00 0.00 21 1015.5
20171118184314 22 40 16.1 29.0 0.00 0.00 0.00 22 1015.6
20171118184240 22 40 16.1 29.0 0.00 0.00 0.00 22 1015.6
20171118184058 22 18 17.7 33.8 0.00 0.00 0.00 21 1015.6
20171118183938 22 18 17.7 33.8 0.00 0.00 0.00 21 1015.6
20171118183639 22 24 20.9 33.8 0.00 0.00 0.00 21 1015.6
20171118183446 22 57 6.4 29.0 0.00 0.00 0.00 22 1015.5
20171118183337 22 57 6.4 29.0 0.00 0.00 0.00 22 1015.5
20171118182735 22 36 20.9 29.0 0.00 0.00 0.00 22 1015.4
20171118182508 22 18 22.5 22.5 0.00 0.00 0.00 22 1015.4
20171118182434 22 18 22.5 22.5 0.00 0.00 0.00 22 1015.4
20171118182222 22 38 16.1 27.4 0.00 0.00 0.00 22 1015.6
20171118182133 22 38 16.1 27.4 0.00 0.00 0.00 22 1015.6
20171118181952 22 36 14.5 20.9 0.00 0.00 0.00 24 1015.5
20171118181832 22 36 14.5 20.9 0.00 0.00 0.00 24 1015.5
20171118181620 22 9 9.7 20.9 0.00 0.00 0.00 24 1015.4
20171118181530 22 9 9.7 20.9 0.00 0.00 0.00 24 1015.4
20171118181230 22 0 8.0 22.5 0.00 0.00 0.00 24 1015.6
20171118180929 22 45 17.7 24.1 0.00 0.00 0.00 24 1015.4
20171118180628 22 20 19.3 30.6 0.00 0.00 0.00 23 1015.4
20171118180326 22 47 20.9 25.7 0.00 0.00 0.00 24 1015.4
20171118180108 22 57 9.7 22.5 0.00 0.00 0.00 25 1015.4
20171118180026 22 57 9.7 22.5 0.00 0.00 0.00 25 1015.4
20171118175808 22 42 11.3 24.1 0.00 0.00 0.00 25 1015.2
20171118175724 22 42 11.3 24.1 0.00 0.00 0.00 25 1015.2
20171118175515 22 65 16.1 25.7 0.00 0.00 0.00 25 1015.4
20171118175423 22 65 16.1 25.7 0.00 0.00 0.00 25 1015.4